Weather History for MMML - June, 2013

Change the Weather History Date:

Saturday, June 22, 2013

  Actual Average Record
Temperature  
Mean Temperature 86 °F -  
Max Temperature 102 °F 103 °F 114 °F (2008)
Min Temperature 71 °F 74 °F 66 °F (2004)
Cooling Degree Days 22    
Growing Degree Days 36 (Base 50)    
Moisture  
Dew Point 34 °F    
Average Humidity 16    
Maximum Humidity 35    
Minimum Humidity 6    
Precipitation  
Precipitation 0.00 in - - ()
Sea Level Pressure  
Sea Level Pressure 29.73 in    
Wind  
Wind Speed 3 mph ()    
Max Wind Speed 8 mph    
Max Gust Speed -    
Visibility 10.0 miles    
Events      
Averages and records for this station are not official NWS values.
T = Trace of Precipitation, MM = Missing Value Source: Averaged Metar Reports

Daily Weather History Graph

Daily Weather History Graph

Search for Another Location

Airport or City:

Trip Planner

Search our weather history database for the weather conditions in past years. The results will help you decide how hot, cold, wet, or windy it might be!

Date:

Astronomy

Jun. 22, 2013 Rise Set
Actual Time 5:34 AM PDT 7:52 PM PDT
Civil Twilight 5:05 AM PDT 8:20 PM PDT
Nautical Twilight 4:30 AM PDT 8:55 PM PDT
Astronomical Twilight 3:52 AM PDT 9:33 PM PDT
Moon 7:14 PM PDT (6/22) 4:47 AM PDT (6/22)
Length of Visible Light 15h 15m
Length of Day
14h 17m
Waxing Gibbous, 99% of the Moon is Illuminated
Jun 22
Waxing Gibbous
Jun 23
Full
Jun 29
Last Quarter
Jul 8
New
Jul 15
First Quarter

Hourly Weather History & Observations

Time (PDT) Temp. Heat Index Dew Point Humidity Pressure Visibility Wind Dir Wind Speed Gust Speed Precip Events Conditions
12:41 AM 82.4 °F - 48.2 °F 30% 29.70 in 10.0 mi NNE 5.8 mph - N/A   Partly Cloudy
5:47 AM 71.6 °F - 35.6 °F 27% 29.72 in 10.0 mi ESE 3.5 mph - N/A   Mostly Cloudy
6:04 AM 71.6 °F - 35.6 °F 27% 29.72 in 10.0 mi ESE 3.5 mph - N/A   Mostly Cloudy
6:43 AM 71.6 °F - 39.2 °F 31% 29.73 in 10.0 mi Calm Calm - N/A   Mostly Cloudy
7:16 AM 77.0 °F - 35.6 °F 22% 29.75 in 10.0 mi Calm Calm - N/A   Mostly Cloudy
7:44 AM 80.6 °F - 39.2 °F 23% 29.82 in 10.0 mi East 5.8 mph - N/A   Mostly Cloudy
8:43 AM 84.2 °F - 41.0 °F 22% 29.78 in 10.0 mi East 4.6 mph - N/A   Mostly Cloudy
9:41 AM 89.6 °F - 30.2 °F 12% 29.77 in 10.0 mi North 5.8 mph - N/A   Scattered Clouds
10:49 AM 93.2 °F - 24.8 °F 9% 29.81 in 10.0 mi North 4.6 mph - N/A   Partly Cloudy
11:46 AM 96.8 °F - 23.0 °F 7% 29.77 in 10.0 mi West 4.6 mph - N/A   Partly Cloudy
12:44 PM 98.6 °F - 21.2 °F 6% 29.75 in 10.0 mi ENE 8.1 mph - N/A   Clear
1:46 PM 100.4 °F - 26.6 °F 7% 29.75 in 10.0 mi Calm Calm - N/A   Clear
2:46 PM 100.4 °F - 26.6 °F 7% 29.69 in 10.0 mi Calm Calm - N/A   Clear
3:49 PM 102.2 °F - 24.8 °F 6% 29.66 in 10.0 mi East 5.8 mph - N/A   Clear
4:54 PM 102.2 °F - 28.4 °F 7% 29.86 in 10.0 mi Calm Calm - N/A   Clear
5:57 PM 102.2 °F - 30.2 °F 8% 29.62 in 10.0 mi ESE 6.9 mph - N/A   Clear
6:45 PM 100.4 °F - 32.0 °F 9% 29.62 in 10.0 mi ESE 5.8 mph - N/A   Clear
7:43 PM 96.8 °F - 37.4 °F 13% 29.85 in 10.0 mi Calm Calm - N/A   Clear
8:48 PM 91.4 °F - 37.4 °F 15% 29.65 in 10.0 mi Calm Calm - N/A   Clear
9:51 PM 87.8 °F 86.5 °F 57.2 °F 35% 29.67 in 10.0 mi Calm Calm - N/A   Clear
10:47 PM 89.6 °F - 33.8 °F 14% 29.69 in 10.0 mi NW 6.9 mph - N/A   Clear
11:44 PM 84.2 °F - 35.6 °F 18% 29.67 in 10.0 mi Calm Calm - N/A   Clear